User: anonymous   Login
Location: Hopkins Observatory
(42.6965°N, 73.1843°W)
Time: 12:12:02
(UTC-04:00)
Language:

UOSAT-12 - Orbit

View from above orbital plane
View from above orbital plane
View from above satellite
View from above satellite

Ground track
Ground track

The orbit data is extracted from the following two-line orbital elements,

1 25693U 99021A   17262.94272676 -.00000082 +00000-0 +85953-5 0  9993
2 25693 064.5559 193.6382 0041926 299.2403 060.4513 14.80754303993920
Epoch (UTC): 19 September 2017 22:37:31
Eccentricity: 0.0041926
inclination: 64.5559°
perigee height: 597 km
apogee height: 656 km
right ascension of ascending node: 193.6382°
argument of perigee: 299.2403°
revolutions per day: 14.80754303
mean anomaly at epoch: 60.4513°
orbit number at epoch: 99392

The dashed part of the orbit path shows where the satellite is in the earth's shadow,  

DLR